Regional Weather Roundup
Issued by NWS

Home | Current Version | Previous Version | Graphics & Text | Print | Product List | Glossary On
Versions: 1 2 3 4 5 6 7 8 9 10 11 12 13 14 15 16 17 18 19 20 21 22 23 24 25 26 27 28 29 30 31 32 33 34 35 36 37 38 39 40 41 42 43 44 45 46 47 48 49 50
000
ASUS43 KLMK 220410
RWRKY
KENTUCKY REGIONAL WEATHER ROUNDUP
NATIONAL WEATHER SERVICE LOUISVILLE KY
1200 AM EDT FRI AUG 22 2014

NOTE "FAIR" INDICATES FEW OR NO CLOUDS BELOW 12,000 FEET
WITH NO SIGNIFICANT WEATHER AND/OR OBSTRUCTIONS TO VISIBILITY.

KYZ001>023-026-027-061>063-070>075-220500-
WESTERN AND SOUTH CENTRAL KENTUCKY

CITY           SKY/WX    TMP DP  RH WIND       PRES   REMARKS
PADUCAH        PTCLDY    83  73  72 S6        30.02R
HENDERSON      CLEAR     75  70  83 SW6       30.01S
OWENSBORO      PTCLDY    78  72  82 S3        30.03R
HOPKINSVILLE   PTCLDY    79  75  87 S7        30.06S
BOWLING GREEN  CLEAR     81  71  71 SW6       30.07R
GLASGOW        CLEAR     76  71  82 CALM      30.08R
$$

KYZ024-025-028>034-038-045-046-053-220500-
NORTH CENTRAL KENTUCKY

CITY           SKY/WX    TMP DP  RH WIND       PRES   REMARKS
LOUISVILLE/SDF MOCLDY    79  73  82 SE6       30.03R
LOUISVILLE/LOU PTCLDY    81  72  74 CALM      30.03R
FORT KNOX      CLEAR     75  75 100 SW6       30.03S
$$

KYZ035>037-039>044-047>052-055>060-089>105-220500-
NORTHEAST KENTUCKY

CITY           SKY/WX    TMP DP  RH WIND       PRES   REMARKS
LEXINGTON      PTCLDY    78  71  79 S7        30.07R
COVINGTON      CLOUDY    77  73  87 CALM      30.05R
FRANKFORT      MOCLDY    76  71  85 SW3       30.05R
$$

KYZ054-064>069-076>088-106>120-220500-
SOUTHEAST KENTUCKY

CITY           SKY/WX    TMP DP  RH WIND       PRES   REMARKS
JACKSON        MOCLDY    71  68  90 CALM      30.11R
LONDON         PTCLDY    77  71  82 S3        30.11R
SOMERSET       PTCLDY    75  73  94 CALM      30.11R
MIDDLESBORO    CLEAR     72  71  96 CALM      30.13S
MONTICELLO     CLEAR     72  71  96 CALM      30.11S
$$




USA.gov is the U.S. government's official web portal to all federal, state and local government web resources and services.